Terminal Aerodrome Forecast
Issued by NWS Wilmington, OH

Current Version | Previous Version | Graphics & Text | Print | Product List | Glossary On
Versions: 1 2 3 4 5 6 7 8 9 10 11 12 13 14 15 16 17 18 19 20 21 22 23 24 25 26 27
916
FTUS41 KILN 191720
TAFCVG
TAF
KCVG 191720Z 1918/2024 26006KT P6SM OVC008
     FM192100 25006KT P6SM FEW015
     FM200400 00000KT 5SM BR BKN015
     FM200700 00000KT 2SM BR OVC015
     FM201600 13004KT P6SM SCT015=

USA.gov is the U.S. government's official web portal to all federal, state and local government web resources and services.